Weather History for Russellville, AR

Change the Weather History Date:

Wednesday, April 16, 2014

  Actual Average (KHOT) Record (KHOT)
Temperature  
Mean Temperature 51 °F -  
Max Temperature 63 °F 76 °F 87 °F (1948)
Min Temperature 39 °F 51 °F 35 °F (1953)
Degree Days  
Heating Degree Days 14    
Growing Degree Days 1 (Base 50)    
Moisture  
Dew Point 32 °F    
Average Humidity 53    
Maximum Humidity 79    
Minimum Humidity 29    
Precipitation  
Precipitation 0.00 in - - ()
Sea Level Pressure  
Sea Level Pressure 30.14 in    
Wind  
Wind Speed 4 mph (SE)    
Max Wind Speed 10 mph    
Max Gust Speed 16 mph    
Visibility 10 miles    
Events      
Averages and records for this station are not official NWS values.
T = Trace of Precipitation, MM = Missing Value Source: NWS Daily Summary

Daily Weather History Graph

Daily Weather History Graph

Search for Another Location

Airport:

Trip Planner

Search our weather history database for the weather conditions in past years. The results will help you decide how hot, cold, wet, or windy it might be!

Date:

Astronomy

Apr. 16, 2014 Rise Set
Actual Time 6:38 AM CDT 7:46 PM CDT
Civil Twilight 6:12 AM CDT 8:12 PM CDT
Nautical Twilight 5:41 AM CDT 8:43 PM CDT
Astronomical Twilight 5:09 AM CDT 9:15 PM CDT
Moon 9:27 PM CDT (4/16) 7:28 AM CDT (4/16)
Length of Visible Light 13h 59m
Length of Day
13h 07m
Full, 98% of the Moon is Illuminated
Apr 16
Full
Apr 22
Last Quarter
Apr 29
New
May 6
First Quarter
May 14
Full

Hourly Weather History & Observations

Time (CDT) Temp. Windchill Dew Point Humidity Pressure Visibility Wind Dir Wind Speed Gust Speed Precip Events Conditions
12:53 AM 44.1 °F 42.5 °F 33.1 °F 65% 30.18 in 10.0 mi Variable 3.5 mph - N/A   Clear
1:53 AM 43.0 °F 41.3 °F 33.1 °F 68% 30.18 in 10.0 mi Variable 3.5 mph - N/A   Clear
2:53 AM 43.0 °F 41.3 °F 33.1 °F 68% 30.16 in 10.0 mi Variable 3.5 mph - N/A   Clear
3:53 AM 41.0 °F - 34.0 °F 76% 30.17 in 10.0 mi Calm Calm - N/A   Clear
4:53 AM 39.9 °F - 33.1 °F 77% 30.17 in 10.0 mi Calm Calm - N/A   Clear
5:53 AM 39.9 °F - 33.1 °F 77% 30.18 in 10.0 mi Calm Calm - N/A   Clear
6:53 AM 39.0 °F 36.8 °F 33.1 °F 79% 30.19 in 10.0 mi East 3.5 mph - N/A   Clear
7:53 AM 43.0 °F 40.3 °F 35.1 °F 74% 30.22 in 10.0 mi ESE 4.6 mph - N/A   Clear
8:53 AM 46.0 °F 43.1 °F 33.1 °F 61% 30.23 in 10.0 mi Variable 5.8 mph - N/A   Clear
9:53 AM 51.1 °F - 28.0 °F 41% 30.22 in 10.0 mi SSE 10.4 mph 16.1 mph N/A   Clear
10:53 AM 54.0 °F - 28.0 °F 37% 30.21 in 10.0 mi Variable 6.9 mph - N/A   Clear
11:53 AM 55.0 °F - 28.0 °F 35% 30.19 in 10.0 mi Variable 6.9 mph - N/A   Clear
1:53 PM 60.1 °F - 30.0 °F 32% 30.13 in 10.0 mi South 9.2 mph - N/A   Clear
2:53 PM 62.1 °F - 30.0 °F 30% 30.09 in 10.0 mi Variable 5.8 mph - N/A   Clear
3:53 PM 63.0 °F - 30.0 °F 29% 30.06 in 10.0 mi SSE 8.1 mph - N/A   Clear
4:53 PM 62.1 °F - 32.0 °F 32% 30.04 in 10.0 mi Variable 6.9 mph - N/A   Clear
5:53 PM 62.1 °F - 32.0 °F 32% 30.04 in 10.0 mi ESE 6.9 mph - N/A   Clear
6:53 PM 60.1 °F - 30.9 °F 33% 30.04 in 10.0 mi Variable 6.9 mph - N/A   Clear
7:53 PM 55.9 °F - 32.0 °F 40% 30.04 in 10.0 mi East 4.6 mph - N/A   Clear
8:53 PM 52.0 °F - 34.0 °F 50% 30.06 in 10.0 mi East 4.6 mph - N/A   Clear
9:53 PM 51.1 °F - 35.1 °F 54% 30.09 in 10.0 mi Calm Calm - N/A   Clear
10:53 PM 48.9 °F - 36.0 °F 61% 30.11 in 10.0 mi ESE 3.5 mph - N/A   Clear
11:53 PM 46.0 °F - 37.0 °F 71% 30.13 in 10.0 mi Calm Calm - N/A   Clear